Location: Fall River State Park
(37.6544°N, 96.0972°W)
Time: 01:28:14
(UTC-06:00)

OTV 5 (USA 277) - Visible Passes

Search period start: 21 February 2019 00:00
Search period end: 03 March 2019 00:00
Orbit: 342 x 346 km, 54.5° (Epoch: 17 February)

Date Brightness Start Highest point End Pass type
(mag) Time Alt. Az. Time Alt. Az. Time Alt. Az.
21 Feb ? 19:26:59 10° S 19:28:23 20° SSE 19:28:23 20° SSE visible
22 Feb ? 19:50:03 10° SW 19:52:09 44° WSW 19:52:09 44° WSW visible
23 Feb ? 18:39:28 10° S 18:41:49 23° SE 18:44:11 10° ENE visible
23 Feb ? 20:14:21 10° W 20:15:47 19° WNW 20:15:47 19° WNW visible
24 Feb ? 19:02:28 10° SW 19:05:20 81° NW 19:07:48 13° NE visible
25 Feb ? 19:26:43 10° W 19:29:06 23° NW 19:31:10 12° NNE visible
27 Feb ? 18:39:06 10° W 18:41:32 23° NW 18:43:57 10° NNE visible
28 Feb ? 19:05:16 10° NNW 19:05:30 10° NNW 19:05:45 10° NNW visible
